Location: �couen
(49.0206°N, 2.3831°E)
Time: 22:15:19
(UTC+00:00)

ATLAS 3B R/B - Pass Details

Date: 27 May 2022
Orbit: 976 x 1218 km, 63.8° (Epoch: 20 June)

Event Time Altitude Azimuth Distance (km) Brightness Sun altitude
Rises 20:09:13 0° 316° (NW) 3,907 8.4 -4.5°
Reaches altitude 10° 20:11:59 10° 322° (NW) 2,984 6.8 -4.8°
Maximum altitude 20:18:50 46° 35° (NE) 1,506 3.6 -5.7°
Drops below altitude 10° 20:26:01 10° 108° (ESE) 3,125 4.6 -6.5°
Enters shadow 20:27:27 - 112° (ESE) 3,601 4.9 -6.7°
